Location: ?????
(30.2541°N, 31.0910°E)
Time: 08:19:23
(UTC+00:00)

Meteor 1-11 Rocket - Pass Details

Date: 27 September 2022
Orbit: 830 x 916 km, 81.2° (Epoch: 28 November)

Event Time Altitude Azimuth Distance (km) Brightness Sun altitude
Rises 02:13:40 0° 355° (N) 3,555 7.0 -20.8°
Reaches altitude 10° 02:16:10 10° 358° (N) 2,611 6.3 -20.3°
Maximum altitude 02:22:08 69° 82° (E) 972 4.2 -19.0°
Drops below altitude 10° 02:28:00 10° 165° (SSE) 2,577 6.3 -17.8°
Sets 02:30:27 0° 168° (SSE) 3,505 7.0 -17.2°
